Starlink 4521

operational
NORAD ID: 53391 Int'l Des: 2022-097 Owner: SPXS Country: US Constellation: starlink
LEOCIRCULAR

About Starlink 4521

Description loading...

Live Position

Loading 3D Globe...

Upcoming Passes

Altitude History

Altitude vs Time

uPlot chart will show altitude changes over time

Two-Line Element Set

1 53391U 22097D 25301.56344366 -.00000357 00000-0 -43393-5 0 9993
2 53391 53.2200 357.2571 0001663 105.0738 255.0438 15.08845041178723
Epoch: Oct 28, 2025 • Age: 22 hours

Current Status

Altitude 542.6 km
Velocity 7.60 km/s
Sub-Earth Point 39.40°N, 172.48°E
Launch Date Aug 10, 2022
Age 3.2 years
Type internet

Technical Details

Classification Payload
Mass 297.00 kg
Dry Mass 275.00 kg
Total Mass 297.00 kg
Length 0.20 m
Diameter 2.80 m
Span 9.00 m
Shape Box + pan
Manufacturer SPXS
Bus Type Starlink
Phase Status In Orbit
Owner/State SPXS/US

Large Constellations

Loading constellations...